Theta_e
323 325 326 327 331 335 338 338 337 338 335 334 335 336 340 345 352 359 351 348 353 338 329 332 336 342 345 344 343 342 343 338 338 338 330 324 324 326 326 326 326 325 324 322 320 320 322 324 326
323 324 326 327 332 338 339 337 337 337 334 333 333 334 337 346 350 351 346 348 355 333 329 331 336 341 344 344 344 344 343 342 340 340 331 324 323 325 327 326 325 324 322 321 321 321 324 326 328
323 324 326 329 332 336 339 339 338 335 333 334 334 336 346 347 350 351 347 349 353 340 330 331 336 342 344 344 344 345 344 345 340 341 335 326 323 322 323 324 324 322 321 321 322 322 324 325 326
323 324 325 328 332 334 336 338 336 335 334 334 335 343 345 349 351 348 346 348 353 351 342 333 337 343 343 343 343 345 345 345 343 342 338 329 324 323 322 322 322 321 320 320 320 321 322 323 323
323 324 328 330 332 333 334 335 334 334 334 334 334 342 343 347 348 347 348 349 349 351 350 333 337 341 342 341 341 342 344 345 346 342 342 334 327 323 322 321 321 320 320 320 320 319 320 320 320
323 325 327 331 333 334 334 333 332 333 334 333 333 336 335 343 347 347 347 349 348 350 351 341 337 340 340 339 339 339 340 343 345 345 343 341 332 325 322 321 321 321 321 320 320 319 319 319 319
322 325 328 330 332 334 334 332 331 332 332 333 332 334 333 334 342 347 348 348 349 350 353 351 335 339 339 338 338 337 338 340 344 346 344 344 338 330 324 322 321 320 320 320 320 320 319 319 319
321 323 326 328 331 332 333 333 331 331 331 330 330 331 332 330 332 341 346 347 348 349 351 352 336 337 336 338 337 337 337 339 343 345 346 345 343 335 328 323 321 320 320 319 319 319 319 319 318
320 324 326 326 328 329 329 332 331 330 330 329 329 329 329 328 328 330 340 345 345 348 348 353 345 338 337 337 337 336 337 338 342 345 346 345 344 341 332 324 321 320 320 319 319 319 319 318 318
321 322 323 325 326 327 327 327 328 329 330 329 328 327 327 326 326 328 331 340 345 345 346 351 352 348 342 346 342 337 336 336 339 343 344 344 344 341 334 327 321 321 320 319 319 319 318 318 318
320 321 321 322 322 322 323 324 324 325 327 328 326 326 326 326 325 326 328 328 330 343 345 347 350 350 349 346 345 343 338 335 334 336 337 338 341 341 338 335 325 321 320 320 319 319 318 318 318
320 321 320 320 322 323 323 323 322 323 323 323 323 323 323 323 324 324 325 328 328 330 338 345 347 349 351 349 346 346 346 338 335 332 331 331 335 339 341 339 331 327 322 320 320 320 319 320 328
320 321 321 321 321 321 322 321 322 322 322 322 321 321 321 321 322 322 323 325 327 328 330 345 346 348 350 349 348 347 349 344 342 337 330 329 328 337 339 340 335 334 330 321 321 321 330 335 333
320 320 321 321 321 321 321 320 319 320 320 320 320 321 321 321 321 321 322 324 326 328 328 332 347 348 350 350 349 350 347 348 344 343 337 331 327 328 341 338 335 340 337 328 332 327 334 337 335
320 321 320 320 320 320 320 320 320 320 320 320 320 321 321 321 321 321 322 323 325 328 328 329 335 348 348 349 350 350 349 349 346 343 341 339 333 325 338 336 339 335 338 334 335 336 337 336 336
319 320 319 321 320 320 320 319 321 321 320 320 320 320 320 321 321 321 321 322 323 324 326 329 334 344 350 350 351 351 351 349 348 345 342 341 337 333 342 342 339 336 339 338 338 337 337 335 330
320 319 320 320 322 321 320 320 321 321 321 321 320 320 321 320 320 320 321 322 322 322 323 325 328 336 340 353 350 351 352 351 351 347 347 344 342 340 335 342 339 336 334 338 337 337 335 333 326
321 320 320 320 322 321 321 320 320 321 320 321 321 321 320 320 320 321 320 320 321 322 323 324 324 321 319 334 347 350 350 352 351 352 348 348 345 344 342 336 337 337 335 337 334 333 335 331 326
320 321 320 322 322 321 321 321 321 321 321 321 321 321 322 321 321 320 320 320 322 322 322 322 322 324 325 323 335 342 346 348 350 350 351 349 348 346 345 343 338 338 334 325 324 323 326 326 326
320 320 320 321 322 321 321 321 322 322 322 322 322 322 322 322 322 322 322 322 322 322 322 321 321 322 323 323 323 343 347 349 349 345 350 350 350 349 348 347 343 337 339 335 328 328 323 322 324
320 321 321 320 321 322 322 322 322 322 322 322 322 322 322 322 321 322 322 322 321 321 321 322 321 321 322 326 325 324 336 342 347 348 349 350 352 350 350 349 347 345 336 333 329 326 327 325 326
321 321 321 320 320 320 321 322 324 323 324 325 324 322 322 322 322 322 322 321 321 320 321 320 321 322 323 324 323 329 325 330 341 347 347 351 350 351 349 350 349 348 344 341 339 332 328 332 335
319 320 320 320 321 321 321 322 322 324 325 325 326 324 323 323 323 322 321 321 320 320 320 321 321 322 322 323 323 327 326 323 328 329 340 346 351 350 350 348 348 349 347 343 342 343 332 335 337
320 319 320 320 321 323 322 323 323 325 326 327 326 324 324 322 321 319 320 320 319 319 319 319 320 322 323 323 323 326 327 326 325 324 337 333 346 349 346 348 349 348 348 347 345 344 341 340 337
320 320 321 322 323 324 323 324 326 329 327 326 325 324 323 321 320 320 319 319 318 318 317 319 319 320 321 321 324 324 326 327 329 330 322 328 342 343 349 346 344 349 348 347 345 344 342 342 340
320 321 323 326 327 326 326 326 326 327 326 325 323 323 322 320 320 319 318 317 317 317 317 318 318 319 321 322 322 326 325 325 327 330 332 328 326 334 346 348 345 344 348 347 346 344 345 345 342
321 321 322 324 325 328 326 325 326 326 326 326 324 322 319 319 319 318 317 317 316 316 317 317 317 319 321 322 324 326 328 330 328 327 331 332 337 333 327 344 345 341 341 348 348 345 343 341 343
321 321 322 323 332 329 325 325 326 326 325 323 323 321 319 318 317 317 317 316 316 317 318 317 319 320 321 323 322 322 324 325 331 333 327 330 332 338 340 333 339 335 337 335 336 343 342 338 328
324 322 322 323 325 329 329 325 326 324 323 323 323 321 319 317 317 316 316 316 317 317 317 317 318 319 320 321 320 322 322 325 326 331 333 334 332 336 334 336 336 338 334 328 322 326 334 333 328
322 324 323 328 328 328 329 329 325 326 323 323 320 318 318 317 317 317 316 316 317 317 317 316 317 318 319 320 321 323 322 323 324 327 329 326 328 332 336 338 336 335 330 328 326 325 325 329 327
Wind_Speed
10 14 14 16 7 8 16 20 18 7 1 6 8 6 15 25 14 6 13 11 15 19 23 23 22 22 22 21 19 17 15 15 14 12 11 12 13 14 14 14 13 12 10 8 8 8 9 9 9
11 14 15 17 11 12 14 21 23 4 14 6 2 5 9 16 18 16 15 16 15 18 22 23 23 22 21 20 18 16 16 15 13 11 10 11 12 13 13 12 11 10 9 8 8 8 8 8 8
11 13 17 8 12 16 16 16 9 12 7 2 2 4 11 12 16 11 16 16 13 15 22 22 23 22 21 19 18 17 15 15 15 12 10 10 11 11 11 11 10 9 8 8 8 7 7 6 6
10 15 15 12 18 21 21 7 7 6 2 1 6 14 11 10 8 13 13 15 12 15 17 22 21 22 21 19 17 16 16 15 15 13 11 10 11 11 10 10 9 8 8 7 7 6 6 5 4
13 13 11 16 19 21 16 4 9 6 2 5 4 18 18 11 11 11 12 12 12 12 16 18 21 21 21 19 18 16 15 16 16 16 13 11 11 11 11 11 10 9 8 8 7 6 6 5 4
13 18 13 14 19 20 16 7 6 10 4 5 7 21 16 10 10 9 9 10 10 13 15 9 19 21 20 19 18 17 16 17 18 18 15 13 12 12 12 12 11 10 9 8 7 6 5 4 3
14 11 17 20 19 17 4 7 7 9 12 7 5 6 15 11 7 6 7 9 11 11 11 9 20 21 20 20 19 18 17 18 19 19 17 14 13 13 13 13 13 12 11 9 8 8 6 5 4
19 10 20 20 17 18 12 5 9 12 10 9 6 4 12 9 5 6 7 8 10 11 11 11 19 22 21 21 20 19 19 19 20 20 19 17 15 15 15 15 15 13 12 11 10 9 8 7 5
19 13 16 22 21 18 21 10 12 10 14 5 3 8 4 4 3 4 8 10 10 13 14 9 7 19 22 21 21 20 20 20 22 22 22 20 19 17 17 17 16 15 13 12 12 11 10 8 6
17 11 23 18 13 13 24 18 13 9 18 13 16 14 13 9 7 7 7 10 12 14 14 14 11 13 14 16 18 22 22 23 24 25 26 25 22 21 19 20 19 17 16 15 13 12 11 10 8
21 17 16 20 22 22 19 11 15 15 16 12 11 17 15 11 7 9 11 13 11 14 18 19 17 16 14 17 23 18 25 26 26 27 28 27 25 22 19 18 21 20 18 17 15 14 13 11 9
20 24 23 23 23 9 8 12 17 21 17 16 17 18 11 11 13 15 16 17 16 14 14 22 20 21 21 18 24 23 18 28 29 30 30 29 28 23 23 22 21 20 22 20 19 16 13 11 7
21 18 23 21 24 15 12 14 16 21 19 17 18 15 15 17 17 18 19 19 20 16 10 20 20 22 24 22 24 24 22 22 24 26 30 33 31 30 28 25 22 20 20 23 20 16 10 11 11
18 23 18 21 16 18 16 18 20 21 19 20 18 16 18 17 18 18 17 16 13 13 16 9 21 22 23 26 28 26 27 23 28 25 27 30 34 34 32 33 30 25 22 21 15 18 17 19 18
16 14 12 17 21 15 20 18 19 22 22 17 17 17 16 16 15 15 11 10 10 10 11 12 10 25 30 29 27 30 30 27 28 30 31 31 31 38 38 38 35 32 27 23 22 18 19 20 19
14 15 16 17 18 22 17 16 16 20 31 23 8 14 17 14 16 13 13 11 10 9 10 10 11 9 25 27 30 28 36 34 33 30 33 34 33 35 36 37 38 34 28 27 26 26 28 27 21
13 14 19 19 19 18 19 18 16 17 5 9 15 20 17 19 17 17 13 8 9 13 11 13 17 19 9 23 27 27 27 32 32 35 30 37 39 34 39 41 40 38 39 37 35 33 32 27 18
16 19 16 17 13 13 13 15 17 14 17 18 20 19 19 19 17 16 18 16 14 9 8 9 14 18 18 18 18 25 26 26 32 32 35 32 36 38 36 45 44 42 41 39 37 35 30 26 23
20 20 15 10 14 16 17 14 16 18 18 18 18 19 20 20 19 17 16 14 9 8 7 8 11 15 19 19 20 25 29 30 32 34 37 34 39 41 40 40 44 39 43 46 45 43 38 32 29
18 18 14 16 16 13 13 15 15 17 19 22 20 20 18 16 16 14 11 2 4 9 12 15 16 17 21 23 22 21 25 28 33 31 37 41 39 40 44 42 42 45 44 47 46 44 39 36 33
14 14 15 17 16 16 14 17 17 20 24 26 26 20 17 15 11 4 0 7 10 12 13 18 20 22 19 20 21 24 29 29 31 30 34 37 42 42 44 46 43 42 47 55 55 50 48 44 41
17 16 17 17 15 13 15 15 19 14 17 19 21 17 15 16 14 4 2 6 9 12 14 18 18 17 17 19 23 24 26 29 25 36 34 36 40 44 45 45 48 47 49 53 52 52 50 46 45
14 14 15 15 14 15 17 12 15 18 19 18 16 24 20 18 9 4 5 6 13 15 18 17 17 21 25 22 23 23 29 34 32 35 32 41 41 45 47 50 56 55 50 54 57 49 55 52 47
15 16 14 14 13 15 18 18 16 17 18 11 7 22 10 7 1 3 4 8 12 15 16 19 21 20 16 21 25 25 27 32 35 38 31 40 37 45 48 50 57 59 58 55 53 52 51 53 54
7 8 9 13 14 15 20 18 12 11 11 7 5 9 7 4 2 5 8 10 14 18 21 18 20 25 22 23 23 26 30 32 36 37 40 42 37 45 48 52 54 56 56 55 56 50 52 53 49
16 14 11 18 14 16 21 15 14 14 13 6 4 8 1 1 4 8 11 13 19 20 20 21 21 24 23 20 25 26 32 34 38 38 39 39 46 48 42 55 56 59 59 54 56 54 50 48 51
13 14 12 9 12 13 14 22 20 18 11 2 1 4 5 7 10 12 15 18 19 22 21 20 27 27 24 19 22 24 25 31 36 40 40 42 44 48 53 41 56 60 56 52 55 50 49 34 44
13 10 7 7 5 12 12 15 10 9 13 6 4 3 8 14 13 16 17 21 18 18 18 21 20 17 20 20 23 27 29 35 31 35 39 45 49 46 50 55 52 48 31 57 34 51 45 38 45
13 12 11 10 12 9 12 10 12 12 6 8 11 16 16 16 17 21 24 20 17 17 17 19 22 22 22 26 26 28 27 34 36 33 33 44 47 45 52 52 50 51 40 46 50 50 21 29 43
17 17 10 5 7 10 10 15 15 12 13 15 11 16 19 22 21 22 22 22 14 17 16 18 19 19 20 20 23 25 27 27 30 36 34 28 35 45 45 41 37 34 20 35 52 48 32 35 33
Wind_Direction
273 305 303 275 250 228 255 248 253 229 358 44 38 332 335 46 37 70 138 133 158 160 154 156 161 162 161 160 160 160 156 153 150 142 139 142 144 142 144 142 140 138 139 141 139 133 133 131 129
289 299 292 264 247 243 237 244 250 43 73 78 69 243 259 63 78 111 118 136 157 155 157 159 162 165 167 167 168 168 166 162 160 152 147 149 152 152 154 150 148 148 149 149 144 142 139 140 141
284 291 280 244 239 245 252 344 9 75 63 270 155 305 24 10 48 98 121 140 157 159 162 162 165 168 172 174 176 177 177 174 172 166 159 159 163 165 166 164 163 163 161 158 153 148 147 146 140
283 276 241 263 250 242 260 257 53 89 139 237 277 90 78 53 67 98 123 143 137 153 164 165 170 172 175 178 181 188 186 187 185 180 172 171 174 176 179 178 179 179 173 171 164 160 157 152 151
257 265 255 248 244 261 252 317 106 266 122 148 189 111 104 89 97 102 126 147 148 157 181 173 174 176 179 182 185 189 200 197 197 194 188 183 187 188 189 189 192 193 188 184 176 174 172 170 169
254 237 254 249 247 248 264 171 148 264 307 76 290 105 98 106 112 128 133 150 154 164 194 185 183 182 184 186 189 192 197 209 205 205 203 198 197 200 204 203 201 199 197 196 191 188 189 185 191
241 249 247 250 264 271 266 272 286 236 268 258 121 114 125 102 122 123 145 151 159 167 206 208 193 189 191 191 193 195 197 201 210 211 214 215 211 211 213 213 211 207 205 205 205 202 201 205 207
224 244 259 261 258 260 257 283 253 269 267 84 92 270 97 101 108 162 174 156 167 165 195 246 195 193 194 196 197 199 199 201 205 213 218 226 229 226 222 220 217 215 214 214 214 218 219 219 220
232 242 240 241 260 280 289 222 231 257 266 332 276 257 40 73 342 231 198 181 177 169 185 205 211 198 199 204 203 203 203 206 210 212 219 223 232 237 236 230 226 222 220 223 227 229 232 236 239
227 229 242 252 261 258 274 284 278 220 254 244 254 262 269 266 253 252 230 221 193 186 188 204 203 212 208 197 217 210 209 209 212 215 219 223 226 237 240 237 233 230 225 225 231 236 240 242 251
215 237 254 243 265 257 276 300 265 281 257 246 269 271 259 255 239 262 256 255 264 217 196 201 213 213 218 191 228 224 220 216 216 221 225 225 225 224 232 231 231 230 231 234 235 241 246 252 256
217 226 237 259 264 280 274 275 277 277 267 264 266 275 290 287 266 258 253 244 249 261 240 197 210 221 221 198 221 235 236 221 221 221 225 228 221 220 218 225 232 233 232 232 234 235 246 254 259
231 238 242 234 251 261 269 274 260 258 257 258 254 268 265 257 263 261 257 257 261 265 260 206 213 226 228 206 206 223 239 223 227 228 223 224 224 216 210 223 222 238 233 227 231 234 239 266 257
233 236 241 260 241 255 235 246 260 258 263 253 248 251 255 250 251 252 247 247 254 259 256 255 216 219 234 233 205 212 228 232 227 230 230 226 224 220 217 212 213 217 229 229 230 227 213 227 240
252 239 240 241 250 238 251 252 239 247 244 233 230 238 246 257 262 264 261 257 255 252 261 268 235 228 231 242 238 217 213 223 219 227 232 239 229 221 214 220 217 204 222 214 214 220 223 225 239
246 245 255 250 226 238 233 251 257 267 218 229 241 257 252 255 250 254 243 240 253 282 264 264 241 246 240 242 252 247 228 223 224 225 226 235 239 227 216 220 220 210 207 211 211 210 212 227 231
232 241 238 248 244 204 213 248 253 241 169 224 219 234 243 244 244 248 251 260 257 266 262 264 245 244 238 242 250 252 249 236 235 228 235 240 242 236 225 223 225 219 210 212 209 216 223 225 227
231 220 235 255 230 189 231 227 249 234 202 222 228 238 244 250 248 237 229 233 243 246 252 257 284 275 256 236 254 245 247 250 238 234 227 234 240 240 234 231 226 224 219 216 220 221 229 230 226
265 282 296 282 229 195 208 225 244 250 248 247 224 227 230 233 235 232 240 242 236 229 252 294 295 297 283 258 251 256 250 252 247 240 230 230 238 242 242 240 235 226 229 231 231 234 225 220 226
245 266 277 284 293 293 273 263 265 263 262 260 259 253 249 249 239 223 213 148 313 311 305 305 302 298 295 284 255 245 251 254 254 252 243 231 231 242 246 246 240 233 226 232 233 229 227 230 225
255 268 268 264 275 270 254 259 258 254 252 252 254 252 251 258 255 194 275 329 320 310 305 302 298 293 284 278 281 263 248 249 250 247 247 240 234 235 240 244 238 240 228 233 237 233 225 225 226
262 241 250 259 266 266 264 269 258 265 246 226 227 224 238 238 228 203 287 297 298 303 295 297 287 297 301 293 285 276 266 258 253 250 245 248 240 234 235 239 243 240 233 228 234 234 230 226 223
263 270 273 268 267 271 263 265 266 260 252 248 229 199 201 222 194 193 250 292 296 299 296 298 291 285 290 299 286 285 274 267 264 263 253 244 244 240 233 234 238 243 235 236 231 233 230 225 223
253 270 266 262 266 257 255 254 260 260 261 267 342 174 163 126 80 296 292 285 291 291 300 298 302 301 286 293 293 291 286 277 273 257 259 255 249 243 237 233 237 242 242 241 233 230 234 227 228
226 255 259 252 243 249 245 245 255 327 330 349 227 147 116 106 286 287 269 280 295 296 292 296 296 295 298 300 293 290 283 282 276 268 262 250 253 247 242 240 240 239 243 242 239 229 226 230 227
260 247 248 275 282 290 309 287 283 309 321 219 219 276 354 272 254 275 280 298 294 291 294 302 299 295 293 292 294 288 290 286 275 270 265 261 252 246 252 243 242 245 242 242 240 225 226 226 222
265 263 296 326 304 280 267 283 286 284 341 334 211 243 282 251 263 268 285 285 285 298 294 297 299 288 281 291 309 299 295 294 286 269 264 258 260 253 248 256 243 242 242 240 237 229 225 226 245
272 276 270 261 282 275 267 278 276 357 315 16 303 241 259 260 266 274 270 275 286 288 290 293 293 307 300 306 301 298 301 295 281 278 267 262 262 257 255 252 249 260 237 241 277 234 206 228 245
261 242 251 255 249 257 278 270 304 359 299 311 294 297 301 300 287 276 270 277 277 281 284 288 298 296 300 301 299 305 306 302 296 276 272 267 266 260 259 260 250 256 244 228 264 280 205 227 209
242 271 257 254 255 266 270 270 282 301 335 344 303 294 284 274 277 282 287 290 276 277 276 282 287 288 289 300 300 302 301 306 306 279 277 296 271 270 258 254 248 236 228 232 224 245 280 247 213